West Palm Beach, FL

4:23 AM EDT on August 24, 2019 (GMT -0400)
Palm Beach International

Weather History for KPBI - June, 2019

Change the Weather History Date:

Saturday, June 1, 2019

  Actual Average Record
Temperature  
Mean Temperature 83 °F 80 °F  
Max Temperature 93 °F 88 °F 95 °F (1927)
Min Temperature 73 °F 74 °F 61 °F (1984)
Degree Days  
Heating Degree Days 0 0  
Month to date heating degree days 0 0  
Since 1 June heating degree days 0 0  
Since 1 July heating degree days 144 233  
Cooling Degree Days 18 15  
Month to date cooling degree days 18 15  
Year to date cooling degree days 1419 1124  
Since 1 June cooling degree days 18 15  
Growing Degree Days 33 (Base 50)    
Moisture  
Dew Point 72 °F    
Average Humidity 71    
Maximum Humidity 93    
Minimum Humidity 49    
Precipitation  
Precipitation 1.32 in 0.26 in 4.27 in (1907)
Month to date precipitation 1.32 0.26  
Year to date precipitation 22.33 18.97  
Snow  
Snow 0.00 in - - ()
Month to date snowfall 0.0  
Since 1 June snowfall 0.0  
Since 1 July snowfall 0.0  
Snow Depth 0.00 in    
Sea Level Pressure  
Sea Level Pressure 29.94 in    
Wind  
Wind Speed 6 mph (SSW)    
Max Wind Speed 36 mph    
Max Gust Speed 42 mph    
Visibility 9 miles    
Events Rain , Thunderstorm    
T = Trace of Precipitation, MM = Missing Value Source: NWS Daily Summary

Daily Weather History Graph

Daily Weather History Graph

Search for Another Location

Airport or City:

Astronomy

Jun. 01, 2019 Rise Set
Actual Time 6:27 AM EDT 8:09 PM EDT
Civil Twilight 6:01 AM EDT 8:35 PM EDT
Nautical Twilight 5:30 AM EDT 9:06 PM EDT
Astronomical Twilight 4:57 AM EDT 9:39 PM EDT
Moon 5:14 AM EDT (6/1) 6:34 PM EDT (6/1)
Length of Visible Light 14h 34m
Length of Day
13h 42m
Waning Crescent, 4% of the Moon is Illuminated
Jun 1
Waning Crescent
Jun 3
New
Jun 10
First Quarter
Jun 17
Full
Jun 25
Last Quarter

Hourly Weather History & Observations

Time (EDT) Temp. Heat Index Dew Point Humidity Pressure Visibility Wind Dir Wind Speed Gust Speed Precip Events Conditions
12:53 AM 81.0 °F 85.8 °F 73.0 °F 77% 29.97 in 10.0 mi South 6.9 mph - N/A   Partly Cloudy
1:53 AM 80.1 °F 84.2 °F 73.0 °F 79% 29.97 in 10.0 mi SW 3.5 mph - N/A   Partly Cloudy
2:53 AM 79.0 °F - 72.0 °F 79% 29.96 in 10.0 mi SW 3.5 mph - N/A   Partly Cloudy
3:53 AM 78.1 °F - 72.0 °F 81% 29.94 in 10.0 mi West 3.5 mph - N/A   Partly Cloudy
4:53 AM 77.0 °F - 72.0 °F 84% 29.95 in 10.0 mi Calm Calm - N/A   Partly Cloudy
5:53 AM 78.1 °F - 73.0 °F 84% 29.95 in 10.0 mi Calm Calm - N/A   Partly Cloudy
6:53 AM 78.1 °F - 73.0 °F 84% 29.96 in 10.0 mi SW 3.5 mph - N/A   Scattered Clouds
7:53 AM 80.1 °F 84.5 °F 73.9 °F 81% 29.97 in 10.0 mi WSW 4.6 mph - N/A   Scattered Clouds
8:53 AM 84.0 °F 90.2 °F 73.0 °F 69% 29.97 in 10.0 mi SSW 6.9 mph - N/A   Partly Cloudy
9:53 AM 84.9 °F 90.1 °F 71.1 °F 63% 29.97 in 10.0 mi SSW 8.1 mph - N/A   Scattered Clouds
10:53 AM 88.0 °F 91.4 °F 68.0 °F 51% 29.97 in 10.0 mi WSW 5.8 mph - N/A   Scattered Clouds
11:53 AM 90.0 °F 93.6 °F 68.0 °F 48% 29.97 in 10.0 mi WSW 5.8 mph - N/A   Scattered Clouds
12:53 PM 91.0 °F 98.2 °F 72.0 °F 53% 29.96 in 10.0 mi Variable 6.9 mph - N/A   Scattered Clouds
1:53 PM 91.0 °F 98.2 °F 72.0 °F 53% 29.93 in 10.0 mi SE 11.5 mph - N/A   Scattered Clouds
2:53 PM 90.0 °F 96.4 °F 71.1 °F 54% 29.92 in 10.0 mi ESE 17.3 mph 23.0 mph N/A   Mostly Cloudy
3:53 PM 91.0 °F 96.6 °F 70.0 °F 50% 29.91 in 10.0 mi SE 18.4 mph - N/A   Mostly Cloudy
3:56 PM 90.0 °F 94.5 °F 69.1 °F 50% 29.91 in 10.0 mi SE 17.3 mph - N/A Thunderstorm Thunderstorm
4:34 PM 78.1 °F - 72.0 °F 81% 29.97 in 2.0 mi North 16.1 mph - 0.28 in Rain , Thunderstorm Thunderstorms and Rain
4:38 PM 73.9 °F - 71.1 °F 91% 29.96 in 0.5 mi NW 34.5 mph 42.6 mph 0.47 in Rain , Thunderstorm Heavy Thunderstorms and Rain
4:40 PM 73.0 °F - 70.0 °F 90% 29.96 in 0.5 mi NW 24.2 mph 42.6 mph 0.60 in Rain , Thunderstorm Heavy Thunderstorms and Rain
4:53 PM 73.0 °F - 71.1 °F 93% 29.94 in 0.5 mi Calm Calm - 1.19 in Rain , Thunderstorm Heavy Thunderstorms and Rain
5:02 PM 73.9 °F - 71.1 °F 91% 29.92 in 8.0 mi South 8.1 mph - 0.09 in Rain , Thunderstorm Light Thunderstorms and Rain
5:19 PM 77.0 °F - 72.0 °F 84% 29.91 in 10.0 mi South 13.8 mph - 0.11 in Thunderstorm Thunderstorm
5:51 PM 78.8 °F - 71.6 °F 78% 29.91 in 10.0 mi SSW 8.1 mph - 0.11 in   Mostly Cloudy
5:53 PM 79.0 °F - 72.0 °F 79% 29.91 in 10.0 mi SSW 9.2 mph - 0.11 in   Mostly Cloudy
6:53 PM 81.0 °F 85.2 °F 72.0 °F 74% 29.90 in 10.0 mi SE 5.8 mph - 0.02 in   Mostly Cloudy
7:53 PM 81.0 °F 84.4 °F 70.0 °F 69% 29.90 in 10.0 mi South 8.1 mph - N/A   Mostly Cloudy
8:53 PM 81.0 °F 84.9 °F 71.1 °F 72% 29.93 in 10.0 mi SSW 6.9 mph - N/A   Mostly Cloudy
9:53 PM 81.0 °F 85.8 °F 73.0 °F 77% 29.95 in 10.0 mi Calm Calm - N/A   Mostly Cloudy
10:53 PM 80.1 °F 84.2 °F 73.0 °F 79% 29.96 in 10.0 mi WSW 4.6 mph - N/A   Mostly Cloudy
11:53 PM 80.1 °F 83.8 °F 72.0 °F 76% 29.96 in 10.0 mi NNW 6.9 mph - N/A   Mostly Cloudy